Location: Bonac
(42.8765°N, 0.9753°E)
Time: 18:54:14
(UTC+00:00)

Cosmos 1953 - Pass Details

Date: 15 April 2026
Orbit: 471 x 483 km, 82.5° (Epoch: 12 May)

Event Time Altitude Azimuth Distance (km) Brightness Sun altitude
Rises 19:22:28 0° 210° (SSW) 2,506 5.8 -8.5°
Reaches altitude 10° 19:24:43 10° 221° (SW) 1,636 5.0 -8.9°
Maximum altitude 19:27:53 30° 284° (WNW) 888 4.3 -9.4°
Drops below altitude 10° 19:31:06 10° 347° (NNW) 1,654 5.3 -9.9°
Sets 19:33:24 0° 358° (N) 2,541 6.1 -10.3°
